Wind_Speed
19 19 15 12 11 11 12 13 16 18 21 25 26 27 29 27 28 30 26 19 16 15 16 16 14 13 12 12 12 13 13 13 13 14 15 16 16 16 15 13 16 21
21 19 16 14 13 12 12 13 14 17 20 23 26 27 27 25 27 30 27 20 15 13 13 14 13 12 11 13 15 15 15 14 15 16 16 16 17 16 15 14 17 22
21 19 17 17 16 13 12 13 15 16 19 22 25 27 25 23 27 30 28 22 15 11 11 11 10 12 14 15 18 18 16 16 17 18 18 18 18 16 16 16 18 23
21 19 17 19 18 14 12 15 16 18 19 22 24 25 23 22 26 30 28 23 17 12 11 12 13 16 18 19 20 20 19 20 21 20 19 18 18 16 17 17 20 24
21 19 18 20 19 15 13 16 20 20 20 21 23 24 22 20 26 29 28 24 19 13 12 14 17 21 22 22 23 22 23 24 22 20 18 18 17 16 17 19 21 25
20 19 19 20 19 17 16 19 22 21 19 21 22 24 21 20 25 28 28 26 21 15 14 15 18 21 23 24 25 25 24 24 21 19 18 17 16 16 17 19 23 26
21 19 19 20 20 19 19 19 20 19 20 21 22 23 22 19 22 26 27 27 24 18 16 16 18 19 21 22 23 23 23 22 20 18 17 16 15 16 17 20 23 26
21 19 18 20 21 20 19 19 20 20 21 21 22 23 21 18 21 24 27 28 26 21 17 16 17 18 18 18 19 19 19 19 17 17 16 14 14 16 17 20 23 25
21 19 19 20 20 19 18 19 21 23 22 21 22 23 20 18 20 24 27 28 27 22 18 15 15 16 16 16 16 16 17 17 17 15 14 13 13 15 17 20 22 24
22 21 22 23 22 20 19 20 22 24 22 19 21 22 20 19 19 23 26 27 27 24 19 16 15 15 15 14 14 15 17 17 16 14 13 13 14 15 17 19 21 22
24 24 25 25 24 23 21 20 22 23 20 17 18 22 22 20 19 22 25 26 27 24 20 16 15 14 12 12 12 14 16 16 15 13 12 13 15 17 18 19 21 22
26 27 28 27 25 24 23 20 20 22 20 17 20 24 23 19 19 22 24 25 25 23 19 15 13 12 10 9 9 10 12 13 13 12 12 13 15 18 18 19 21 23
28 30 29 27 26 26 24 21 20 23 22 19 21 22 20 19 20 22 23 23 24 22 18 13 11 11 11 9 8 8 10 11 11 12 12 13 16 18 18 18 19 22
30 31 29 27 28 27 24 22 22 25 25 23 24 23 19 20 22 22 21 21 21 20 17 13 12 12 11 10 8 9 10 11 12 13 14 15 16 18 18 18 19 21
33 33 30 28 28 27 25 24 25 28 28 25 25 24 21 21 22 21 20 20 18 18 17 13 12 12 11 9 9 10 12 13 13 14 16 16 17 18 19 19 19 21
34 35 33 31 31 30 28 26 26 29 29 26 25 25 23 22 22 20 20 19 16 15 16 14 12 13 12 11 11 12 14 14 14 15 17 18 19 20 20 20 21 23
36 35 34 35 35 35 32 28 27 32 31 26 27 30 27 24 22 19 18 18 16 14 14 13 12 12 13 13 13 14 15 16 15 16 18 19 20 21 21 22 23 24
38 36 37 37 36 35 31 26 27 33 33 28 28 31 30 27 23 19 18 18 16 14 13 12 12 11 11 13 14 15 15 15 15 16 17 18 20 21 21 21 23 25
36 34 35 36 37 36 32 27 27 32 33 30 29 30 30 28 24 20 19 19 18 16 14 12 10 11 10 10 13 15 15 14 14 15 16 17 18 20 20 21 22 24
34 33 33 36 37 36 34 33 33 35 35 33 31 31 31 29 26 23 21 20 19 17 16 13 11 10 10 9 10 12 14 15 14 14 15 16 17 18 20 21 21 23
34 34 34 36 36 35 35 35 35 37 37 34 34 34 32 30 29 28 25 23 21 19 18 15 12 9 8 9 9 9 11 14 14 14 15 16 17 17 18 19 20 21
39 38 36 37 37 36 36 36 36 37 37 36 35 36 35 34 33 31 29 26 24 22 20 18 15 11 10 9 9 9 9 11 13 15 15 15 17 18 18 18 19 21
45 43 40 38 38 38 36 36 37 37 37 36 35 35 36 36 35 32 31 29 27 25 23 21 19 17 15 13 12 11 10 9 11 14 15 15 16 17 18 19 19 20
45 44 41 39 40 41 38 36 37 37 36 36 35 34 36 36 35 33 32 31 29 27 25 24 22 20 19 17 16 16 14 12 10 11 13 14 14 15 18 19 20 20
43 43 43 40 39 40 40 37 37 38 37 36 35 35 34 34 33 33 33 32 30 28 27 25 23 23 21 20 19 19 17 15 13 12 12 13 13 14 16 19 20 21
50 48 47 43 40 41 41 39 40 40 38 36 36 36 35 34 34 34 33 31 30 29 28 27 27 26 25 23 24 24 21 18 15 13 12 12 13 14 15 17 20 22
Wind_Direction
242 248 261 268 260 273 282 280 286 291 299 309 315 325 333 332 334 338 334 322 304 282 264 254 247 244 247 257 269 275 275 273 272 276 282 289 292 284 272 250 217 208
239 246 259 260 257 265 271 276 288 293 299 307 314 326 334 333 333 337 336 326 310 291 269 253 247 250 260 272 276 275 272 269 271 277 282 286 287 280 265 244 216 207
236 245 257 261 261 267 274 287 294 292 297 306 313 324 331 330 333 338 338 331 315 291 263 248 253 262 264 266 266 268 270 271 274 280 283 283 282 273 256 238 214 205
235 241 254 260 263 269 278 284 283 282 294 305 313 324 327 327 334 338 339 334 319 292 260 238 238 250 255 257 259 264 269 272 276 281 281 279 277 265 249 234 213 204
235 239 250 257 262 269 269 269 272 278 292 303 314 325 325 325 334 338 338 335 324 300 270 243 236 243 250 255 259 264 269 272 276 280 279 277 270 255 242 231 213 203
234 240 248 254 257 258 258 266 272 278 291 300 311 324 323 322 332 336 335 335 328 306 278 256 248 251 254 259 262 265 269 272 277 279 278 273 260 243 235 227 212 203
235 242 248 250 249 251 259 271 273 278 292 297 305 319 319 318 330 333 332 333 330 314 289 268 259 259 261 265 268 269 270 273 276 277 275 267 250 235 228 222 211 204
237 241 248 247 243 246 258 267 270 282 292 293 302 316 315 314 326 330 329 331 330 320 300 278 267 266 268 272 273 273 272 272 274 274 271 257 241 231 224 218 212 207
233 235 240 239 236 243 257 265 273 284 288 290 302 312 310 309 319 326 327 328 328 323 308 286 271 270 274 275 275 273 272 272 271 270 262 245 233 227 219 215 213 211
230 232 235 236 241 253 266 272 279 284 285 292 303 307 305 304 312 322 324 323 325 324 313 293 274 271 276 276 271 269 269 270 267 259 247 235 227 219 213 213 214 215
227 229 234 240 247 258 267 273 278 278 280 294 297 294 299 301 307 317 318 317 321 322 314 299 281 274 277 277 273 269 268 266 258 245 237 230 222 215 213 215 217 220
229 232 234 241 249 259 267 271 271 267 270 289 292 289 295 297 302 312 312 312 319 321 313 300 284 276 276 280 281 275 271 265 251 235 232 229 219 215 218 221 222 223
227 231 232 239 250 260 264 263 262 260 264 283 290 290 292 289 296 308 307 308 318 322 314 299 283 275 270 275 283 279 276 268 248 233 229 225 217 215 221 226 225 223
226 231 235 244 253 255 254 255 258 255 260 276 286 287 282 277 288 302 301 304 317 324 317 298 278 271 265 267 276 277 276 269 249 234 227 223 217 215 220 224 223 221
229 233 238 246 248 244 245 256 260 254 258 274 282 282 275 270 282 294 295 300 314 325 325 305 277 269 266 265 266 263 268 270 256 238 230 228 226 224 225 225 222 220
231 235 238 239 237 238 246 257 260 258 265 277 281 278 276 274 278 284 287 293 304 319 327 321 293 275 269 266 262 254 257 266 261 246 237 234 233 233 233 229 225 222
231 233 235 235 236 242 247 249 255 263 270 276 276 275 275 272 271 273 277 283 290 301 317 327 320 295 278 270 264 257 257 263 262 252 244 240 238 240 238 232 227 224
230 230 233 236 236 239 241 241 251 265 268 265 265 268 268 264 262 264 269 275 280 287 300 320 334 326 300 279 268 265 265 266 263 256 250 245 243 244 242 237 231 227
227 228 230 231 229 231 237 241 246 253 256 256 258 260 260 259 259 260 263 267 273 280 288 301 324 340 334 304 281 272 269 269 268 264 256 250 246 244 242 239 235 230
223 224 225 227 227 232 242 249 248 246 249 254 256 255 253 254 260 264 261 260 266 275 281 285 299 327 342 333 307 284 271 269 271 271 264 255 249 245 241 238 236 232
224 226 230 235 240 246 252 256 255 252 252 255 256 257 256 258 266 270 265 258 258 264 270 273 282 302 322 330 328 311 285 273 272 275 274 265 255 249 244 242 238 236
232 236 242 247 251 252 253 255 255 255 257 256 254 256 259 262 267 269 265 259 257 257 262 268 274 282 292 305 320 327 310 286 274 275 278 273 263 254 249 246 242 240
238 241 244 246 247 245 245 249 251 253 255 253 250 252 255 258 261 262 261 260 260 260 264 270 276 281 288 297 306 312 313 299 276 269 271 272 267 257 252 250 246 242
235 236 237 238 239 239 242 245 246 246 248 246 246 250 254 257 259 260 260 262 262 262 265 270 275 280 286 296 302 304 306 307 296 279 270 268 266 259 253 252 250 247
235 233 233 236 237 236 237 240 240 241 241 240 242 247 252 256 259 260 261 263 265 266 268 271 275 276 278 285 292 292 293 299 305 305 294 281 272 265 256 252 251 250
238 236 234 236 239 238 237 238 240 240 238 236 239 245 248 250 251 254 257 260 262 265 268 270 273 274 275 279 283 283 282 283 287 298 306 297 282 274 267 258 253 251
Height
10946 10947 10949 10949 10949 10950 10951 10951 10950 10950 10949 10949 10950 10949 10946 10943 10941 10939 10936 10935 10934 10934 10935 10936 10938 10939 10940 10941 10943 10944 10946 10946 10947 10947 10947 10947 10947 10947 10947 10947 10948 10949
10944 10946 10947 10947 10947 10948 10948 10949 10949 10948 10948 10948 10948 10947 10945 10942 10940 10938 10936 10934 10933 10933 10934 10935 10937 10938 10939 10940 10941 10943 10944 10945 10945 10946 10946 10946 10945 10945 10945 10945 10946 10948
10943 10945 10945 10945 10945 10946 10946 10946 10947 10947 10946 10945 10945 10945 10943 10941 10939 10937 10935 10933 10932 10932 10933 10934 10936 10937 10938 10939 10940 10941 10942 10943 10944 10944 10945 10944 10944 10943 10943 10944 10945 10946
10942 10943 10943 10943 10943 10944 10944 10945 10945 10945 10944 10944 10943 10943 10942 10940 10938 10936 10934 10932 10932 10931 10932 10933 10935 10936 10937 10937 10938 10939 10940 10941 10942 10943 10943 10942 10941 10941 10941 10942 10943 10944
10940 10941 10941 10941 10942 10942 10943 10944 10943 10943 10943 10942 10942 10941 10940 10939 10937 10935 10933 10931 10931 10931 10931 10931 10933 10933 10934 10935 10935 10936 10937 10938 10939 10940 10940 10940 10939 10939 10939 10939 10941 10943
10938 10939 10939 10940 10940 10941 10942 10942 10942 10942 10941 10941 10940 10940 10939 10938 10936 10933 10932 10930 10929 10929 10929 10929 10931 10931 10932 10932 10933 10934 10935 10935 10937 10937 10938 10937 10937 10936 10936 10937 10939 10941
10935 10937 10938 10938 10938 10939 10940 10941 10941 10940 10940 10939 10939 10938 10937 10936 10934 10932 10930 10929 10928 10928 10927 10928 10929 10929 10930 10930 10931 10931 10932 10933 10934 10934 10934 10934 10934 10934 10934 10935 10936 10939
10933 10935 10936 10936 10937 10938 10938 10939 10939 10938 10938 10937 10936 10936 10935 10934 10933 10931 10930 10928 10927 10927 10926 10926 10927 10927 10928 10928 10928 10929 10929 10930 10931 10931 10931 10932 10932 10932 10933 10933 10935 10937
10930 10932 10933 10934 10935 10936 10937 10936 10937 10937 10936 10935 10933 10931 10932 10932 10931 10930 10929 10927 10926 10925 10925 10925 10925 10925 10925 10926 10926 10926 10927 10927 10928 10928 10928 10929 10930 10930 10931 10932 10934 10936
10928 10929 10930 10931 10933 10934 10934 10934 10934 10934 10934 10933 10930 10928 10929 10930 10930 10929 10928 10926 10925 10924 10923 10923 10923 10923 10923 10923 10923 10924 10924 10925 10925 10925 10926 10926 10928 10929 10930 10931 10933 10934
10925 10926 10927 10928 10930 10930 10931 10931 10931 10931 10931 10931 10929 10928 10929 10930 10929 10927 10927 10926 10924 10923 10921 10921 10921 10921 10921 10921 10921 10921 10922 10922 10923 10923 10924 10925 10926 10927 10929 10930 10931 10932
10922 10923 10925 10926 10927 10928 10929 10930 10930 10930 10930 10930 10929 10929 10928 10927 10927 10926 10926 10925 10923 10921 10920 10919 10919 10920 10920 10920 10919 10920 10920 10920 10921 10922 10922 10923 10924 10925 10927 10928 10929 10930
10920 10922 10923 10925 10925 10926 10928 10929 10929 10929 10929 10929 10929 10927 10925 10924 10925 10926 10925 10924 10922 10920 10918 10918 10918 10918 10918 10918 10918 10918 10919 10919 10920 10920 10921 10921 10922 10924 10925 10926 10928 10928
10918 10920 10922 10923 10923 10924 10926 10927 10928 10928 10928 10928 10928 10928 10927 10926 10925 10925 10925 10923 10921 10919 10917 10916 10917 10917 10917 10917 10917 10917 10917 10918 10918 10919 10919 10919 10920 10922 10923 10924 10925 10926
10915 10917 10919 10920 10921 10923 10924 10925 10925 10924 10925 10926 10926 10926 10927 10927 10926 10925 10924 10923 10921 10918 10916 10915 10915 10915 10915 10915 10915 10916 10916 10916 10917 10917 10917 10918 10919 10920 10921 10922 10923 10924
10912 10914 10916 10918 10920 10921 10922 10924 10923 10919 10920 10923 10922 10922 10924 10925 10924 10924 10923 10922 10920 10918 10916 10915 10914 10914 10914 10914 10914 10914 10914 10915 10915 10915 10916 10916 10917 10918 10919 10920 10921 10923
10909 10912 10914 10916 10918 10919 10920 10924 10921 10916 10916 10920 10919 10919 10921 10922 10922 10922 10922 10920 10919 10918 10916 10915 10913 10913 10912 10912 10913 10913 10913 10913 10914 10914 10914 10915 10915 10916 10917 10918 10919 10921
10906 10909 10911 10913 10915 10916 10918 10922 10920 10914 10913 10916 10917 10917 10918 10919 10919 10920 10919 10919 10918 10917 10916 10915 10913 10912 10911 10911 10911 10911 10912 10912 10912 10913 10913 10913 10913 10914 10915 10916 10917 10918
10904 10906 10908 10909 10910 10911 10912 10915 10915 10910 10908 10911 10914 10915 10915 10916 10916 10916 10916 10917 10916 10916 10915 10914 10913 10912 10911 10910 10910 10910 10910 10911 10911 10911 10911 10911 10912 10912 10913 10914 10915 10916
10901 10902 10902 10902 10904 10905 10906 10907 10907 10905 10905 10909 10911 10913 10913 10913 10913 10913 10912 10913 10914 10914 10913 10912 10912 10911 10910 10909 10909 10908 10908 10909 10909 10910 10910 10910 10910 10911 10912 10912 10913 10914
10896 10897 10897 10897 10898 10901 10901 10902 10902 10902 10904 10907 10909 10910 10910 10910 10909 10909 10909 10909 10910 10911 10911 10910 10910 10909 10908 10908 10907 10907 10906 10906 10907 10907 10908 10908 10909 10909 10910 10910 10910 10911
10891 10892 10892 10892 10894 10896 10897 10898 10899 10899 10900 10903 10905 10906 10906 10906 10905 10905 10905 10906 10907 10909 10909 10909 10908 10907 10906 10905 10905 10905 10904 10904 10904 10905 10905 10906 10907 10907 10907 10907 10908 10908
10886 10886 10887 10888 10890 10891 10893 10895 10896 10896 10896 10898 10900 10900 10900 10901 10901 10902 10902 10904 10905 10907 10907 10907 10906 10906 10905 10904 10904 10903 10902 10902 10902 10902 10903 10904 10904 10905 10905 10905 10905 10906
10878 10880 10882 10884 10885 10886 10888 10890 10891 10892 10893 10894 10895 10896 10897 10897 10898 10899 10900 10901 10902 10904 10905 10905 10905 10905 10904 10904 10903 10903 10901 10901 10901 10900 10900 10901 10901 10902 10902 10903 10903 10904
10871 10874 10877 10879 10880 10882 10884 10886 10887 10888 10889 10890 10891 10893 10894 10894 10895 10896 10897 10898 10900 10901 10901 10902 10902 10902 10902 10902 10902 10902 10901 10901 10900 10900 10899 10899 10899 10899 10900 10900 10901 10901
10865 10869 10872 10875 10876 10878 10880 10882 10883 10884 10885 10887 10888 10889 10890 10891 10892 10893 10895 10896 10897 10898 10898 10899 10899 10899 10899 10899 10900 10900 10900 10900 10900 10899 10899 10898 10898 10898 10898 10898 10898 10898